GW7369 Weather Reports


time (UTC)temp
F
wind
direction
speed
knots
gust
knots
rain 1hr
in
rain 24hr
in
rain mn
in
humidity
%
barometer
mb
20260502152300 58 47 7.8 15.6 0.00 0.00 0.00 44 1018.6
20260502151759 57 37 11.3 15.6 0.00 0.00 0.00 46 1018.6
20260502151300 57 59 10.4 13.9 0.00 0.00 0.00 45 1018.6
20260502150800 57 73 6.1 13.9 0.00 0.00 0.00 46 1018.6
20260502150300 57 44 9.6 13.9 0.00 0.00 0.00 47 1018.6
20260502130259 52 79 3.5 9.6 0.00 0.00 0.00 60 1017.6
20260502123759 51 46 9.6 12.2 0.00 0.00 0.00 61 1017.6
20260502123259 51 46 10.4 13.0 0.00 0.00 0.00 61 1017.6
20260502122800 50 40 12.2 13.9 0.00 0.00 0.00 62 1017.6
20260502122259 50 97 5.2 13.9 0.00 0.00 0.00 62 1017.2
20260502121800 50 71 6.1 13.0 0.00 0.00 0.00 62 1017.2
20260502121259 50 60 7.8 13.0 0.00 0.00 0.00 62 1017.2
20260502120800 50 68 7.8 13.0 0.00 0.00 0.00 62 1017.2
20260502120300 50 52 7.8 12.2 0.00 0.00 0.00 62 1017.2
20260502115800 50 44 3.5 12.2 0.00 0.00 0.00 63 1017.2
20260502115300 50 87 3.5 11.3 0.00 0.00 0.00 63 1017.2
20260502114800 49 59 6.1 11.3 0.00 0.00 0.00 63 1017.2
20260502114300 49 70 5.2 11.3 0.00 0.00 0.00 62 1016.8
20260502113800 49 50 9.6 11.3 0.00 0.00 0.00 62 1016.8
20260502113300 49 54 7.0 11.3 0.00 0.00 0.00 62 1016.8
20260502112800 49 38 7.8 11.3 0.00 0.00 0.00 62 1016.5
20260502112259 49 59 2.6 11.3 0.00 0.00 0.00 62 1016.5
20260502111800 49 3 2.6 13.0 0.00 0.00 0.00 62 1016.5
20260502111300 49 51 12.2 13.0 0.00 0.00 0.00 62 1016.5
20260502110800 49 95 6.1 12.2 0.00 0.00 0.00 62 1016.1
20260502110300 50 47 7.8 12.2 0.00 0.00 0.00 62 1016.1
20260502105759 50 78 5.2 12.2 0.00 0.00 0.00 62 1016.1
20260502105259 50 57 7.0 12.2 0.00 0.00 0.00 61 1016.1
20260502104800 50 63 7.8 12.2 0.00 0.00 0.00 62 1015.8
20260502104259 50 61 6.1 10.4 0.00 0.00 0.00 62 1016.1
20260502103800 50 48 7.0 11.3 0.00 0.00 0.00 62 1016.1
20260502103300 50 38 5.2 11.3 0.00 0.00 0.00 62 1016.1
20260502102759 50 73 6.1 10.4 0.00 0.00 0.00 62 1016.1
20260502102259 50 34 7.0 10.4 0.00 0.00 0.00 62 1016.1
20260502101759 50 41 6.1 12.2 0.00 0.00 0.00 62 1015.8
20260502101300 50 43 5.2 12.2 0.00 0.00 0.00 62 1015.8
20260502100800 50 34 3.5 9.6 0.00 0.00 0.00 62 1016.1
20260502100259 50 29 7.8 11.3 0.00 0.00 0.00 61 1015.8
20260502091300 51 69 3.5 9.6 0.00 0.00 0.00 58 1016.1
20260502090800 51 65 3.5 9.6 0.00 0.00 0.00 58 1016.1
20260502090300 51 68 4.3 10.4 0.00 0.00 0.00 58 1016.5
20260502071259 53 68 4.3 13.0 0.00 0.00 0.00 54 1015.8
20260502070759 53 65 7.8 14.8 0.00 0.00 0.00 54 1016.5
20260502070259 53 47 9.6 14.8 0.00 0.00 0.00 53 1016.1
20260502065800 53 38 6.1 11.3 0.00 0.00 0.00 53 1016.5
20260502065300 53 44 7.0 12.2 0.00 0.00 0.00 53 1016.5
20260502064800 53 86 4.3 13.0 0.00 0.00 0.00 53 1016.5
20260502064300 53 59 7.8 13.0 0.00 0.00 0.00 52 1016.8
20260502063800 53 68 10.4 13.0 0.00 0.00 0.00 53 1016.8
20260502063300 53 58 5.2 13.0 0.00 0.00 0.00 53 1016.8
20260502062800 53 61 5.2 9.6 0.00 0.00 0.00 53 1017.2
20260502062259 53 77 7.8 10.4 0.00 0.00 0.00 52 1017.6
20260502061759 53 83 5.2 13.0 0.00 0.00 0.00 52 1017.2
20260502061300 53 69 2.6 13.0 0.00 0.00 0.00 52 1017.2
20260502060800 53 57 5.2 11.3 0.00 0.00 0.00 53 1017.2
20260502060300 54 67 6.1 11.3 0.00 0.00 0.00 52 1017.2
20260502055759 54 70 6.1 11.3 0.00 0.00 0.00 53 1017.2
20260502055259 54 70 4.3 11.3 0.00 0.00 0.00 53 1017.2
20260502054759 54 64 4.3 11.3 0.00 0.00 0.00 53 1017.2
20260502054259 54 76 3.5 9.6 0.00 0.00 0.00 53 1017.2
20260502053759 54 65 7.0 9.6 0.00 0.00 0.00 54 1017.2
20260502053259 54 44 1.7 9.6 0.00 0.00 0.00 54 1017.2
20260502052800 54 60 3.5 10.4 0.00 0.00 0.00 54 1016.8
20260502052300 54 51 8.7 10.4 0.00 0.00 0.00 55 1016.5
20260502051759 54 47 6.1 10.4 0.00 0.00 0.00 55 1016.8
20260502051259 54 83 3.5 11.3 0.00 0.00 0.00 55 1016.8
20260502050759 54 36 5.2 11.3 0.00 0.00 0.00 55 1016.5
20260502050259 54 62 3.5 13.0 0.00 0.00 0.00 56 1016.5
20260502045800 54 57 6.1 13.0 0.00 0.00 0.00 55 1016.5
20260502045259 54 50 7.8 12.2 0.00 0.00 0.00 55 1016.8
20260502044800 54 72 7.0 11.3 0.00 0.00 0.00 57 1016.1
20260502044259 54 70 7.0 11.3 0.00 0.00 0.00 57 1016.5
20260502043800 54 92 2.6 9.6 0.00 0.00 0.00 58 1016.5
20260502043300 55 79 5.2 10.4 0.00 0.00 0.00 58 1016.5
20260502042800 55 70 6.1 11.3 0.00 0.00 0.00 58 1016.5
20260502042259 55 64 5.2 11.3 0.00 0.00 0.00 59 1016.5
20260502041759 55 74 7.0 11.3 0.00 0.00 0.00 59 1016.1
20260502041300 55 68 4.3 11.3 0.00 0.00 0.00 59 1016.1
20260502040800 55 64 4.3 10.4 0.00 0.00 0.00 60 1016.1
20260502040300 55 68 3.5 11.3 0.00 0.00 0.00 61 1016.1
20260502035800 55 63 6.1 12.2 0.00 0.00 0.00 61 1016.1
20260502035300 55 63 8.7 11.3 0.00 0.00 0.00 61 1015.8
20260502034759 55 76 6.1 10.4 0.00 0.00 0.00 62 1016.1
20260502034259 55 46 6.1 11.3 0.00 0.00 0.00 62 1016.1
20260502033759 55 49 9.6 11.3 0.00 0.00 0.00 62 1016.5
20260502033259 55 51 7.8 11.3 0.00 0.00 0.00 63 1016.1
20260502032759 56 52 7.0 11.3 0.00 0.00 0.00 64 1016.1
20260502032259 56 46 7.0 12.2 0.00 0.00 0.00 64 1016.5
20260502031759 56 52 7.8 12.2 0.00 0.00 0.00 65 1016.1
20260502031300 56 76 5.2 13.9 0.00 0.00 0.00 67 1016.1
20260502030759 56 58 3.5 13.9 0.00 0.00 0.00 68 1016.1
20260502030259 56 48 6.1 10.4 0.00 0.00 0.00 69 1016.1
20260502025759 56 64 5.2 12.2 0.00 0.00 0.00 69 1016.1
20260502025300 57 35 6.1 12.2 0.00 0.00 0.00 69 1016.1
20260502024759 57 49 7.0 12.2 0.00 0.00 0.00 69 1016.5
20260502024259 57 56 6.1 12.2 0.00 0.00 0.00 70 1016.5
20260502023759 57 45 4.3 10.4 0.00 0.00 0.00 71 1016.5
20260502023300 57 27 6.1 10.4 0.00 0.00 0.00 72 1016.8
20260502022759 57 37 5.2 9.6 0.00 0.00 0.00 72 1016.5
20260502022306 57 56 2.6 9.6 0.00 0.00 0.00 71 1016.8
20260502021759 58 37 5.2 9.6 0.00 0.00 0.00 71 1016.5
20260502021259 58 36 4.3 9.6 0.00 0.00 0.00 71 1016.5
20260502020800 58 27 6.1 13.0 0.00 0.00 0.00 71 1016.5
20260502020259 58 37 8.7 13.0 0.00 0.00 0.00 72 1016.1
20260502015800 58 25 5.2 7.8 0.00 0.00 0.00 73 1016.1
20260502015305 58 22 4.3 7.0 0.00 0.00 0.00 74 1015.8
20260502014759 58 44 3.5 7.0 0.00 0.00 0.00 74 1016.1